This is the latest recevied weather packets stored in our database for station/object N4DBJ. If no packets are shown the sender has not sent any weather packets the latest 10 day(s).
| Time | Temp. | Humidity | Pressure | Rain* | Wind** | Luminosity | Snow |
|---|---|---|---|---|---|---|---|
| 1777184326 | 11.67° C | 99% | 1009.3 hPa | 0 mm | - | 0 W/m² | - |
| 1777184021 | 11.11° C | 99% | 1009.1 hPa | 0 mm | - | 0 W/m² | - |
| 1777183717 | 11.11° C | 99% | 1009.3 hPa | 0 mm | - | 0 W/m² | - |
| 1777183414 | 11.11° C | 99% | 1009.2 hPa | 0 mm | - | 0 W/m² | - |
| 1777183114 | 11.11° C | 99% | 1009.1 hPa | 0 mm | - | 0 W/m² | - |
| 1777182810 | 11.11° C | 99% | 1009.2 hPa | 0 mm | - | 0 W/m² | - |
| 1777182506 | 11.67° C | 99% | 1009.4 hPa | 0 mm | - | 0 W/m² | - |
| 1777182202 | 11.67° C | 99% | 1009.4 hPa | 0 mm | - | 0 W/m² | - |
| 1777181899 | 11.67° C | 99% | 1009.5 hPa | 0 mm | - | 0 W/m² | - |
| 1777181594 | 11.67° C | 99% | 1009.5 hPa | 0 mm | - | 0 W/m² | - |
| 1777181289 | 11.67° C | 99% | 1009.7 hPa | 0 mm | - | 0 W/m² | - |
| 1777180980 | 11.67° C | 99% | 1009.4 hPa | 0 mm | - | 0 W/m² | - |
| 1777180676 | 11.67° C | 99% | 1009.4 hPa | 0 mm | - | 0 W/m² | - |
| 1777180371 | 12.22° C | 99% | 1009.4 hPa | 0 mm | - | 0 W/m² | - |
| 1777180068 | 12.22° C | 99% | 1009.6 hPa | 0 mm | - | 0 W/m² | - |
| 1777179759 | 12.22° C | 99% | 1009.4 hPa | 0 mm | - | 0 W/m² | - |
| 1777179454 | 11.67° C | 99% | 1009.2 hPa | 0 mm | - | 0 W/m² | - |
| 1777179152 | 12.22° C | 99% | 1009.1 hPa | 0 mm | - | 0 W/m² | - |
| 1777178849 | 12.22° C | 99% | 1008.7 hPa | 0 mm | - | 0 W/m² | - |
| 1777178546 | 12.22° C | 99% | 1008.7 hPa | 0 mm | - | 0 W/m² | - |
| 1777178243 | 12.22° C | 99% | 1008.8 hPa | 0 mm | - | 0 W/m² | - |
| 1777177941 | 12.22° C | 99% | 1009.2 hPa | 0 mm | - | 0 W/m² | - |
| 1777177636 | 12.22° C | 99% | 1008.9 hPa | 0 mm | - | 0 W/m² | - |
| 1777177331 | 12.78° C | 99% | 1009.1 hPa | 0 mm | - | 0 W/m² | - |
| 1777177029 | 12.78° C | 99% | 1009.2 hPa | 0 mm | - | 0 W/m² | - |
* Rain latest hour (hover to see other rain measurements)
** Current wind speed in m/s (hover to see current wind gust speed)